sat.trackr.live / text

‹ back to catalog

STARLINK-30476

NORAD 57930 · 2023-147T

PAYLOAD ACTIVE UNKNOWN

§ Identity

Operator
Country
US
Launch date
2023-09-24
Launch site
AFETR
Launch vehicle
Mass (kg)
RCS (m²)

Purposes: comms

External: N2YO · Heavens-Above · Gunter

§ Orbital elements

Epoch: 2026-07-30T03:48:38.102112Z

Period
89.68 min
Inclination
42.9817°
Eccentricity
0.0012348
Mean motion
16.05736947 rev/d
Perigee alt
250.4 km
Apogee alt
266.8 km
Semi-major
6,636.7 km
B*
9.9150e-4
RAAN
139.9829°
Arg perigee
239.5885°
Mean anomaly
120.3776°
Rev number
15,954

§ Raw data

STARLINK-304761 57930U 23147T   26211.15877433  .00747798  28629-3  99150-3 0  99902 57930  42.9817 139.9829 0012348 239.5885 120.3776 16.05736947159544

JSON: /api/v1/satellites/57930 · /tle

For live sub-satellite position, see the globe view (requires WebGL).

§ Visibility from observer

Set your observer location to see the next 7 days of passes ≥ 10°. The values pass through the URL so the page stays shareable.

No JS? Fill the form by hand. The geolocation button needs JavaScript.